Flagstaff, AZ

8:18 AM MST on August 21, 2017 (GMT -0700)
Flagstaff Pulliam

Weather History for KFLG - April, 2012

Change the Weather History Date:

Friday, April 27, 2012

  Actual Average Record
Temperature  
Mean Temperature 47 °F 46 °F  
Max Temperature 63 °F 62 °F 77 °F (1992)
Min Temperature 30 °F 31 °F 10 °F (1984)
Degree Days  
Heating Degree Days 18 19  
Month to date heating degree days 528 596  
Since 1 July heating degree days 6065 6303  
Cooling Degree Days 0 0  
Month to date cooling degree days 0 0  
Year to date cooling degree days 0 0  
Moisture  
Dew Point 32 °F    
Average Humidity 61    
Maximum Humidity 100    
Minimum Humidity 21    
Precipitation  
Precipitation 0.00 in 0.03 in 0.69 in (1994)
Month to date precipitation 1.24 1.06  
Year to date precipitation 4.46 7.39  
Snow  
Snow 0.00 in 0.20 in 8.70 in (1994)
Month to date snowfall 10.4 6.6  
Since 1 July snowfall 102.9 100.5  
Snow Depth 0.00 in    
Sea Level Pressure  
Sea Level Pressure 29.95 in    
Wind  
Wind Speed 4 mph (WSW)    
Max Wind Speed 16 mph    
Max Gust Speed 21 mph    
Visibility 10 miles    
Events      
T = Trace of Precipitation, MM = Missing Value Source: NWS Daily Summary

Daily Weather History Graph

Daily Weather History Graph

Search for Another Location

Airport or City:

Trip Planner

Search our weather history database for the weather conditions in past years. The results will help you decide how hot, cold, wet, or windy it might be!

Date:

Astronomy

Apr. 27, 2012 Rise Set
Actual Time 5:39 AM MST 7:09 PM MST
Civil Twilight 5:12 AM MST 7:36 PM MST
Nautical Twilight 4:40 AM MST 8:08 PM MST
Astronomical Twilight 4:06 AM MST 8:42 PM MST
Moon 10:23 AM MST (4/27) No Moon Set
Length of Visible Light 14h 24m
Length of Day
13h 30m
Waxing Crescent, 34% of the Moon is Illuminated
Apr 27
Waxing Crescent
Apr 29
First Quarter
May 5
Full
May 12
Last Quarter
May 20
New

Hourly Weather History & Observations

Time (MST) Temp. Windchill Dew Point Humidity Pressure Visibility Wind Dir Wind Speed Gust Speed Precip Events Conditions
12:57 AM 37.9 °F 33.5 °F 34.0 °F 86% 30.00 in 10.0 mi West 5.8 mph - N/A   Scattered Clouds
1:57 AM 34.0 °F 29.8 °F 33.1 °F 96% 29.98 in 10.0 mi WNW 4.6 mph - N/A   Scattered Clouds
2:57 AM 35.1 °F 32.2 °F 33.1 °F 92% 30.00 in 10.0 mi NW 3.5 mph - N/A   Partly Cloudy
3:57 AM 32.0 °F - 30.9 °F 96% 30.01 in 10.0 mi Calm Calm - N/A   Partly Cloudy
4:57 AM 30.9 °F - 28.9 °F 92% 30.01 in 10.0 mi Calm Calm - N/A   Clear
5:57 AM 32.0 °F - 30.9 °F 96% 30.02 in 10.0 mi Calm Calm - N/A   Clear
6:57 AM 37.9 °F 35.5 °F 35.1 °F 89% 30.01 in 10.0 mi SSW 3.5 mph - N/A   Clear
7:57 AM 43.0 °F 39.5 °F 36.0 °F 76% 29.99 in 10.0 mi SW 5.8 mph - N/A   Clear
8:57 AM 48.9 °F - 34.0 °F 56% 29.98 in 10.0 mi Variable 5.8 mph - N/A   Clear
9:57 AM 52.0 °F - 35.1 °F 53% 29.97 in 10.0 mi Calm Calm - N/A   Clear
10:57 AM 57.0 °F - 37.0 °F 47% 29.96 in 10.0 mi Variable 3.5 mph - N/A   Clear
11:57 AM 57.0 °F - 37.0 °F 47% 29.94 in 10.0 mi Calm Calm - N/A   Scattered Clouds
12:57 PM 62.1 °F - 32.0 °F 32% 29.92 in 10.0 mi West 10.4 mph 18.4 mph N/A   Clear
1:57 PM 62.1 °F - 30.0 °F 30% 29.93 in 10.0 mi NNW 6.9 mph 17.3 mph N/A   Clear
2:57 PM 62.1 °F - 23.0 °F 22% 29.91 in 10.0 mi Variable 6.9 mph 19.6 mph N/A   Clear
3:57 PM 62.1 °F - 25.0 °F 24% 29.93 in 10.0 mi WSW 8.1 mph 18.4 mph N/A   Clear
4:57 PM 62.1 °F - 28.0 °F 28% 29.91 in 10.0 mi Variable 5.8 mph - N/A   Clear
5:57 PM 61.0 °F - 32.0 °F 34% 29.90 in 10.0 mi Variable 4.6 mph - N/A   Clear
6:57 PM 55.9 °F - 35.1 °F 45% 29.90 in 10.0 mi SSW 6.9 mph - N/A   Clear
7:57 PM 51.1 °F - 36.0 °F 56% 29.91 in 10.0 mi SSW 4.6 mph - N/A   Clear
8:57 PM 48.0 °F - 32.0 °F 54% 29.91 in 10.0 mi Calm Calm - N/A   Clear
9:57 PM 48.0 °F - 27.0 °F 44% 29.90 in 10.0 mi Calm Calm - N/A   Clear
10:57 PM 42.1 °F 39.2 °F 30.9 °F 65% 29.89 in 10.0 mi SW 4.6 mph - N/A   Clear
11:57 PM 43.0 °F - 30.0 °F 60% 29.88 in 10.0 mi Calm Calm - N/A   Clear